[[{"header":{"parameterUnit":"m.s-1","parameterCategory":2,"la1":30.2991,"la2":30.254,"lo1":-89.0895,"lo2":-89.0444,"dy":0.0017,"dx":0.0017,"nx":28,"ny":28,"refTime":"2025-06-20T03:00:00:Z","depth":"0","parameterNumber":2,"parameterNumberName":"U-component_of_CURRENTS"},"data":[0,0,0,0,0,0,0,0,0,0,0,0,0,0,0,0,0,0,0,0,0,0,0,0,0,0,0,0,0,0,0,0,0,0,0,0,0,0,0,0,0,0,0,0,0,0,0,0,0,0,0,0,0,0,0,0,0,0,0.2964,0.2965,0,0.3002,0.3002,0.3002,0.2989,0.2988,0.2988,0.2987,0.3097,0.31,0.3103,0,0,0,0,0,0,0,0,0,0,0,0,0,0.2894,0.2894,0.2964,0.2965,0.2966,0.3002,0.3002,0.3002,0.2989,0.2988,0.2988,0.2987,0.3095,0.3099,0.3103,0,0,0,0,0,0,0,0,0,0,0,0,0,0.2923,0.2895,0.2964,0.2967,0.2968,0.3002,0.3002,0.3002,0.2989,0.2988,0.2988,0.2987,0.3094,0.3099,0.3104,0.3147,0,0,0.3119,0.3121,0,0,0,0,0,0,0,0,0.2921,0.2925,0.2966,0.2967,0.2968,0.2994,0.3017,0.3056,0.2989,0.2976,0.2987,0.2987,0.3072,0.3079,0.308,0.3152,0.3157,0.3119,0.3122,0.3125,0.3126,0,0,0,0,0,0,0,0.2919,0.2923,0.2974,0.2967,0.2968,0.2971,0.2974,0.3024,0.3025,0.2977,0.2977,0.2989,0.3073,0.3075,0.3083,0.3159,0.3119,0.3124,0.3127,0.3129,0.3325,0.3327,0,0,0,0,0,0,0.2924,0.2921,0.2973,0.2976,0.2948,0.2973,0.2976,0.2983,0.3023,0.3029,0.299,0.2989,0.3067,0.3077,0.3087,0.3171,0.3125,0.3129,0.3132,0.3323,0.3326,0.3328,0,0,0,0,0,0,0.2922,0.2928,0.2972,0.2953,0.296,0.2976,0.2983,0.2984,0.2986,0.3033,0.3039,0.2991,0.3067,0.308,0.3147,0.3174,0.3131,0.3136,0.332,0.3324,0.3327,0.3321,0,0,0,0,0,0,0.292,0.2927,0.2933,0.2954,0.2961,0.2994,0.2984,0.2985,0.2997,0.2995,0.3037,0.3046,0.3067,0.314,0.3152,0.318,0.314,0.3318,0.3322,0.3326,0.3319,0.3324,0.3329,0,0,0,0,0,0.2917,0.2933,0.2933,0.2939,0.2969,0.2995,0.2998,0.3004,0.2997,0.3002,0.3042,0.3044,0.3175,0.3146,0.316,0.319,0.3316,0.3321,0.3326,0.3317,0.3323,0.3329,0,0,0,0,0,0,0.291,0.2934,0.2934,0.2957,0.2974,0.2994,0.3005,0.3007,0.3038,0.304,0.3073,0.3087,0.316,0.3182,0.3148,0.3263,0.3247,0.3255,0.3235,0.3242,0.3247,0.3225,0.3144,0,0,0,0,0,0.2911,0.2923,0.2948,0.2964,0.2974,0.2988,0.2999,0.3003,0.3035,0.3045,0.3073,0.3124,0.3193,0.322,0.3276,0.3334,0.3368,0.3366,0.3371,0.3375,0.337,0.3461,0.3473,0.3345,0.3345,0.3345,0,0,0.2914,0.2929,0.2936,0.2963,0.2974,0.2989,0.2991,0.3011,0.3025,0.3058,0.3088,0.3145,0.3216,0.3285,0.3319,0.3303,0.3431,0.3381,0.3384,0.3376,0.3467,0.348,0.349,0.3348,0.3348,0.3347,0,0,0.292,0.2936,0.2944,0.2959,0.2983,0.2995,0.3001,0.3022,0.3033,0.3081,0.3119,0.3189,0.3267,0.3322,0.3365,0.3435,0.3461,0.3458,0.3456,0.3545,0.3555,0.3565,0.3621,0.3635,0.3451,0.3451,0.3451,0,0.292,0.293,0.2952,0.2963,0.2972,0.2996,0.3003,0.3028,0.3066,0.3087,0.3093,0.3234,0.3287,0.3389,0.3413,0.3444,0.3489,0.342,0.3549,0.3559,0.3569,0.3624,0.364,0.3452,0.3452,0.3452,0.3452,0,0.2931,0.2935,0.2944,0.2959,0.2976,0.2989,0.3024,0.3045,0.3067,0.3093,0.3187,0.3268,0.3346,0.3387,0.3423,0.3527,0.3534,0.3548,0.3523,0.3581,0.3636,0.3653,0.3452,0.3452,0.3452,0.3452,0,0,0.2928,0.2944,0.2944,0.2934,0.2971,0.2977,0.302,0.3059,0.3081,0.3144,0.3191,0.332,0.3354,0.3406,0.3468,0.3545,0.3656,0.3571,0.3576,0.3607,0.3839,0.3776,0.3788,0.3696,0.37,0.3702,0.3847,0,0.2921,0.2918,0.294,0.2934,0.2931,0.2969,0.2999,0.3043,0.3093,0.3146,0.325,0.3323,0.3367,0.3412,0.3501,0.3627,0.3702,0.3614,0.3795,0.3799,0.3721,0.3806,0.365,0.376,0.3863,0.3866,0.3868,0,0.2918,0.2911,0.2899,0.2898,0.2902,0.2907,0.2948,0.2982,0.3079,0.3126,0.3222,0.3297,0.3433,0.3455,0.3682,0.3627,0.3729,0.3817,0.3825,0.3775,0.3768,0.3724,0.3787,0.3597,0.3894,0.3892,0.389,0,0.2878,0.2879,0.2857,0.2858,0.2875,0.2877,0.2892,0.2967,0.3,0.3111,0.3156,0.3315,0.3397,0.3565,0.3735,0.3725,0.3972,0.3979,0.4015,0.401,0.3916,0.3897,0.3797,0.4134,0.4133,0.4133,0.4132,0,0.2855,0.2834,0.2826,0.281,0.2783,0.2821,0.2825,0.2871,0.2957,0.2999,0.3132,0.3209,0.3432,0.359,0.3747,0.3929,0.3986,0.4029,0.4055,0.3909,0.3889,0.3749,0.3661,0.4138,0.4137,0.4136,0.4135,0,0.2807,0.281,0.2772,0.2765,0.2757,0.2734,0.2756,0.2769,0.2863,0.2931,0.2967,0.3152,0.3355,0.3563,0.3833,0.3923,0.3984,0.4156,0.3949,0.3947,0.3776,0.3695,0.3598,0.3518,0.4223,0.4222,0.4222,0,0.2779,0.2753,0.2714,0.2681,0.2666,0.2646,0.2635,0.2708,0.2734,0.2896,0.2925,0.3126,0.3266,0.3615,0.3827,0.4075,0.3947,0.4033,0.3982,0.3746,0.3678,0.3556,0.3488,0.3863,0.386,0.3857,0.3855,0,0.2706,0.2691,0.2652,0.2586,0.2547,0.2518,0.2514,0.2531,0.2635,0.2714,0.2837,0.2963,0.3282,0.3451,0.3742,0.3896,0.3773,0.3982,0.3808,0.3441,0.3235,0.3175,0.3765,0.3831,0.3833,0.3835,0.3836,0.3837,0.2634,0.2584,0.2528,0.2461,0.2417,0.2375,0.2346,0.2396,0.2439,0.2553,0.2711,0.2875,0.3077,0.3476,0.3599,0.3597,0.3643,0.3511,0.3454,0.337,0.3203,0.3715,0.376,0.3762,0.3764,0.3766,0.3767,0,0.2511,0.2467,0.2405,0.2309,0.2228,0.2253,0.2244,0.2236,0.2274,0.2435,0.2554,0.2736,0.2863,0.3043,0.3132,0.3059,0.3021,0.2955,0.2724,0.2709,0.3226,0.3115,0.2933,0.2933,0.2934,0.2934,0.2934,0.2934,0.2438,0.2336,0.2304,0.2137,0.2082,0.1981,0.1971,0.2008,0.2105,0.2218,0.2328,0.247,0.2563,0.2535,0.2464,0.2479,0.23,0.2209,0.2223,0.2521,0.2567,0.2611,0.2482,0.2171,0.217,0.1627,0.1622,0.1619]},{"header":{"parameterUnit":"m.s-1","parameterCategory":2,"la1":30.2991,"la2":30.254,"lo1":-89.0895,"lo2":-89.0444,"dy":0.0017,"dx":0.0017,"nx":28,"ny":28,"refTime":"2025-06-20T03:00:00:Z","depth":"0","parameterNumber":3,"parameterNumberName":"V-component_of_CURRENTS"},"data":[0,0,0,0,0,0,0,0,0,0,0,0,0,0,0,0,0,0,0,0,0,0,0,0,0,0,0,0,0,0,0,0,0,0,0,0,0,0,0,0,0,0,0,0,0,0,0,0,0,0,0,0,0,0,0,0,0,0,0.1198,0.1199,0,0.1259,0.126,0.126,0.1247,0.1246,0.1246,0.1245,0.1246,0.1247,0.1248,0,0,0,0,0,0,0,0,0,0,0,0,0,0.1058,0.106,0.1197,0.1199,0.12,0.1259,0.126,0.126,0.1247,0.1246,0.1245,0.1245,0.1246,0.1247,0.1248,0,0,0,0,0,0,0,0,0,0,0,0,0,0.1115,0.1061,0.1197,0.1204,0.1205,0.1259,0.126,0.126,0.1247,0.1246,0.1245,0.1244,0.1246,0.1247,0.1248,0.1277,0,0,0.1251,0.1252,0,0,0,0,0,0,0,0,0.1112,0.1119,0.1202,0.1204,0.1205,0.1248,0.1211,0.1264,0.1248,0.1227,0.1245,0.1244,0.1245,0.1246,0.1255,0.1277,0.1277,0.1251,0.1252,0.1252,0.1253,0,0,0,0,0,0,0,0.1108,0.1117,0.1218,0.1203,0.1205,0.1201,0.1207,0.1221,0.1237,0.1229,0.1229,0.1243,0.1245,0.1254,0.1255,0.1277,0.1251,0.1252,0.1253,0.1253,0.1302,0.1303,0,0,0,0,0,0,0.1111,0.1114,0.1216,0.122,0.116,0.1204,0.1211,0.1232,0.1238,0.124,0.1244,0.1242,0.1253,0.1253,0.1255,0.1311,0.1252,0.1253,0.1254,0.1302,0.1302,0.1303,0,0,0,0,0,0,0.1108,0.112,0.1213,0.1171,0.1183,0.1208,0.1231,0.1234,0.1245,0.1251,0.125,0.1253,0.1252,0.1253,0.1288,0.131,0.1254,0.1255,0.1301,0.1302,0.1303,0.141,0,0,0,0,0,0,0.1104,0.1119,0.1135,0.1172,0.1186,0.1259,0.1233,0.1236,0.1257,0.1255,0.1259,0.1258,0.1251,0.1287,0.1289,0.131,0.1256,0.13,0.1301,0.1303,0.1405,0.1414,0.1422,0,0,0,0,0,0.1099,0.1134,0.1136,0.1148,0.1207,0.1262,0.1269,0.1279,0.1259,0.1279,0.1284,0.1258,0.1294,0.129,0.1292,0.1314,0.13,0.1301,0.1302,0.1402,0.1412,0.1422,0,0,0,0,0,0,0.1082,0.1138,0.114,0.1189,0.1227,0.1261,0.1288,0.1285,0.1305,0.1302,0.1288,0.1289,0.1323,0.1302,0.1296,0.1326,0.1284,0.1286,0.1358,0.1368,0.1376,0.1374,0.1257,0,0,0,0,0,0.1088,0.1127,0.1173,0.1212,0.1236,0.1258,0.1279,0.129,0.1314,0.132,0.1321,0.1318,0.1332,0.1338,0.1346,0.1375,0.1326,0.138,0.1388,0.1396,0.1393,0.1338,0.1341,0.1308,0.1308,0.1308,0,0,0.1092,0.1129,0.115,0.1211,0.124,0.1292,0.1268,0.1315,0.1352,0.1319,0.1364,0.1357,0.1347,0.1383,0.1393,0.1369,0.1383,0.1398,0.1405,0.1397,0.134,0.1343,0.1346,0.1309,0.1309,0.1309,0,0,0.113,0.1156,0.1204,0.1244,0.13,0.1321,0.1336,0.1377,0.139,0.1439,0.1417,0.1427,0.1448,0.1446,0.1446,0.1501,0.1432,0.149,0.1532,0.148,0.1482,0.1483,0.1441,0.1438,0.1489,0.1489,0.1489,0,0.1131,0.1201,0.1225,0.1285,0.1326,0.1336,0.1397,0.1422,0.1465,0.1478,0.1466,0.1481,0.1479,0.1506,0.1527,0.1522,0.1475,0.1503,0.1491,0.1491,0.1491,0.1447,0.1442,0.1494,0.1494,0.1493,0.1493,0,0.1208,0.1264,0.1301,0.1377,0.142,0.1478,0.1521,0.1551,0.156,0.1571,0.1599,0.1593,0.1591,0.1592,0.1585,0.1582,0.1546,0.1514,0.147,0.1501,0.1453,0.1446,0.1502,0.15,0.1499,0.1497,0,0,0.1209,0.133,0.1341,0.1394,0.1476,0.1521,0.1587,0.1645,0.1669,0.1689,0.1714,0.1733,0.1697,0.1692,0.1667,0.1628,0.1603,0.1574,0.1569,0.1539,0.1485,0.1436,0.1423,0.1561,0.156,0.1559,0.1459,0,0.1262,0.1379,0.1428,0.1537,0.1603,0.164,0.1697,0.1741,0.1759,0.1783,0.1765,0.1777,0.1744,0.1737,0.1699,0.1632,0.1585,0.1632,0.1452,0.1447,0.1405,0.1413,0.1425,0.1334,0.1452,0.145,0.145,0,0.1322,0.1395,0.1506,0.162,0.165,0.1705,0.178,0.1835,0.1864,0.1872,0.1866,0.1841,0.1821,0.177,0.1659,0.1687,0.1592,0.1526,0.152,0.1427,0.1384,0.1317,0.1315,0.1187,0.1438,0.1439,0.1439,0,0.1314,0.1452,0.1538,0.1581,0.1701,0.1746,0.1801,0.185,0.1892,0.1912,0.1921,0.1886,0.1864,0.1755,0.1644,0.1638,0.1501,0.1471,0.1334,0.133,0.128,0.1273,0.1136,0.1361,0.1362,0.1362,0.1362,0,0.1357,0.1427,0.1537,0.1587,0.1677,0.1754,0.1831,0.1873,0.1923,0.1963,0.1951,0.1957,0.1851,0.1773,0.1656,0.1484,0.1503,0.1337,0.1296,0.1319,0.1317,0.1152,0.1092,0.1358,0.1359,0.136,0.136,0,0.1343,0.1418,0.1522,0.1643,0.168,0.174,0.1857,0.1906,0.1945,0.1992,0.2,0.1996,0.1905,0.179,0.162,0.1491,0.1271,0.1263,0.1307,0.1272,0.1014,0.0961,0.0806,0.0782,0.1089,0.1087,0.1086,0,0.1351,0.1403,0.1537,0.159,0.1648,0.1745,0.1811,0.19,0.195,0.2013,0.2031,0.1983,0.1966,0.1728,0.1512,0.1297,0.1205,0.1126,0.1109,0.0994,0.0904,0.0908,0.0902,0.1093,0.1092,0.109,0.109,0,0.1358,0.1397,0.1473,0.1577,0.1659,0.1761,0.1858,0.1901,0.1997,0.2044,0.2085,0.2087,0.1899,0.171,0.1426,0.1272,0.1066,0.1091,0.0958,0.0879,0.0888,0.0849,0.1173,0.1079,0.108,0.1081,0.1082,0.1082,0.134,0.1381,0.147,0.1567,0.1662,0.176,0.1823,0.1922,0.201,0.2092,0.2117,0.215,0.1885,0.1521,0.1321,0.092,0.0956,0.0785,0.0726,0.0739,0.0723,0.1024,0.0891,0.089,0.089,0.089,0.089,0,0.1319,0.1372,0.1459,0.1574,0.166,0.1724,0.1843,0.1902,0.1992,0.211,0.2171,0.2067,0.1737,0.1407,0.0865,0.0606,0.0588,0.0461,0.0472,0.0481,0.0723,0.0729,0.0572,0.0572,0.0573,0.0573,0.0573,0.0573,0.1309,0.1366,0.1416,0.1538,0.1617,0.171,0.1769,0.1867,0.1969,0.2066,0.2108,0.2145,0.1807,0.0944,0.0389,0.0292,0.0185,0.0139,0.0078,0.0227,0.0254,0.0279,0.027,0.0019,0.0018,-0.0084,-0.0086,-0.0088]}],[{"header":{"parameterUnit":"m.s-1","parameterCategory":2,"la1":30.2991,"la2":30.254,"lo1":-89.0895,"lo2":-89.0444,"dy":0.0017,"dx":0.0017,"nx":28,"ny":28,"refTime":"2025-06-20T03:00:00:Z","depth":"2","parameterNumber":2,"parameterNumberName":"U-component_of_CURRENTS"},"data":[0,0,0,0,0,0,0,0,0,0,0,0,0,0,0,0,0,0,0,0,0,0,0,0,0,0,0,0,0,0,0,0,0,0,0,0,0,0,0,0,0,0,0,0,0,0,0,0,0,0,0,0,0,0,0,0,0,0,0.2187,0.2188,0,0.2187,0.2187,0.2186,0.2184,0.2184,0.2184,0.2184,0.2193,0.2193,0.2193,0,0,0,0,0,0,0,0,0,0,0,0,0,0.2189,0.2189,0.2187,0.2188,0.2188,0.2187,0.2187,0.2186,0.2184,0.2184,0.2184,0.2184,0.2193,0.2193,0.2193,0,0,0,0,0,0,0,0,0,0,0,0,0,0.2186,0.2189,0.2187,0.2188,0.2188,0.2187,0.2187,0.2186,0.2184,0.2184,0.2184,0.2185,0.2193,0.2193,0.2193,0.2191,0,0,0.2194,0.2194,0,0,0,0,0,0,0,0,0.2187,0.2186,0.2188,0.2188,0.2188,0.2187,0.2191,0.2189,0.2184,0.2183,0.2184,0.2185,0.2193,0.2193,0.219,0.2191,0.2192,0.2194,0.2194,0.2194,0.2194,0,0,0,0,0,0,0,0.2187,0.2186,0.2185,0.2188,0.2188,0.2189,0.2189,0.219,0.2186,0.2183,0.2184,0.2187,0.2193,0.219,0.219,0.2192,0.2194,0.2194,0.2194,0.2194,0.2254,0.2255,0,0,0,0,0,0,0.219,0.2186,0.2185,0.2185,0.219,0.2189,0.2189,0.2186,0.2186,0.2186,0.2187,0.2187,0.2189,0.219,0.2191,0.225,0.2194,0.2194,0.2194,0.2252,0.2254,0.2256,0,0,0,0,0,0,0.219,0.219,0.2185,0.2188,0.2188,0.2189,0.2186,0.2186,0.2202,0.2188,0.2189,0.2205,0.219,0.219,0.2218,0.2248,0.2194,0.2195,0.225,0.2253,0.2255,0.2329,0,0,0,0,0,0,0.219,0.219,0.2198,0.2188,0.2188,0.2199,0.2186,0.2186,0.2203,0.2204,0.2204,0.2204,0.219,0.2218,0.2218,0.2247,0.2195,0.2249,0.2251,0.2254,0.2324,0.2333,0.2341,0,0,0,0,0,0.219,0.2197,0.2198,0.2199,0.2195,0.22,0.2201,0.2201,0.2204,0.2215,0.2224,0.2205,0.2235,0.222,0.2219,0.2249,0.2247,0.2251,0.2254,0.2321,0.2331,0.234,0,0,0,0,0,0,0.2204,0.2197,0.2198,0.2204,0.221,0.2201,0.2212,0.2215,0.2229,0.2236,0.2224,0.2225,0.226,0.2246,0.2229,0.2275,0.2238,0.2242,0.2289,0.2299,0.2307,0.2308,0.2195,0,0,0,0,0,0.2211,0.2214,0.2211,0.2219,0.2224,0.2224,0.223,0.2232,0.2239,0.2245,0.2251,0.2258,0.227,0.2279,0.2283,0.2309,0.2314,0.2328,0.2336,0.2343,0.2344,0.2378,0.2389,0.2266,0.2266,0.2266,0,0,0.2217,0.2217,0.2218,0.2223,0.2226,0.2241,0.2228,0.2244,0.2264,0.2245,0.2283,0.2289,0.2284,0.2315,0.2329,0.2309,0.2387,0.2347,0.2353,0.235,0.2382,0.2394,0.2405,0.2269,0.2268,0.2268,0,0,0.2233,0.2234,0.2244,0.2252,0.2265,0.2266,0.2278,0.2287,0.23,0.2333,0.233,0.2356,0.2371,0.2377,0.2379,0.2435,0.243,0.244,0.2482,0.2515,0.2526,0.2535,0.2585,0.2598,0.2443,0.2444,0.2444,0,0.2248,0.2253,0.225,0.2266,0.2278,0.2283,0.2303,0.2317,0.234,0.2357,0.2356,0.2399,0.2399,0.2435,0.2458,0.2454,0.2478,0.2445,0.2527,0.2535,0.2543,0.2592,0.2605,0.2447,0.2447,0.2447,0.2446,0,0.2267,0.228,0.2289,0.2308,0.2323,0.234,0.2358,0.2386,0.2406,0.2418,0.2467,0.2475,0.2498,0.2508,0.2501,0.256,0.2564,0.2535,0.2502,0.256,0.2608,0.2621,0.2453,0.2452,0.2451,0.245,0,0,0.2278,0.2297,0.2302,0.2316,0.2346,0.2356,0.2401,0.2433,0.2465,0.2498,0.2538,0.2572,0.2581,0.2585,0.2588,0.2618,0.2708,0.2609,0.2609,0.266,0.2808,0.2717,0.2721,0.2698,0.27,0.2702,0.2829,0,0.2298,0.2324,0.2333,0.237,0.2385,0.2408,0.2446,0.2481,0.2512,0.2555,0.2577,0.2617,0.2609,0.2633,0.2666,0.2691,0.274,0.2678,0.2742,0.2744,0.2656,0.2731,0.2382,0.2457,0.2841,0.2843,0.2845,0,0.2316,0.2329,0.2358,0.2394,0.2404,0.2432,0.2488,0.2524,0.2582,0.261,0.2655,0.2672,0.2735,0.2711,0.2802,0.2768,0.2802,0.282,0.2824,0.2716,0.2674,0.2455,0.2464,0.2865,0.2863,0.2862,0.2861,0,0.2313,0.2349,0.2369,0.2381,0.2424,0.2451,0.2484,0.2542,0.2572,0.2651,0.2679,0.2749,0.2783,0.2839,0.2884,0.2859,0.2975,0.2938,0.2895,0.289,0.259,0.2554,0.3011,0.3011,0.301,0.301,0.301,0,0.2323,0.2342,0.2369,0.2379,0.2413,0.2453,0.2497,0.2546,0.2607,0.2647,0.2707,0.2752,0.2816,0.288,0.2921,0.2951,0.3013,0.2921,0.2916,0.2609,0.2575,0.2911,0.2897,0.3015,0.3014,0.3013,0.3012,0,0.2315,0.2333,0.2355,0.2395,0.2409,0.2436,0.2488,0.2518,0.2591,0.2647,0.2678,0.277,0.2871,0.2931,0.3028,0.2982,0.3031,0.3028,0.2675,0.2625,0.2921,0.291,0.2997,0.2994,0.2993,0.2991,0.299,0,0.231,0.2319,0.2352,0.2356,0.2372,0.241,0.2432,0.2505,0.2535,0.2657,0.2679,0.2798,0.2843,0.2943,0.2857,0.289,0.3055,0.2642,0.2514,0.2933,0.292,0.2912,0.2904,0.2166,0.2159,0.2152,0.2147,0,0.2293,0.2306,0.2318,0.2326,0.2342,0.2356,0.2397,0.2415,0.251,0.2555,0.2638,0.2686,0.2707,0.2555,0.2573,0.2548,0.2599,0.2512,0.3036,0.2221,0.2158,0.2144,0.2161,0.2089,0.2095,0.2099,0.2102,0.2105,0.2274,0.2273,0.228,0.2287,0.2296,0.2295,0.2288,0.2326,0.2358,0.2335,0.2458,0.2374,0.2321,0.2124,0.2112,0.2079,0.225,0.2162,0.2178,0.2202,0.208,0.2016,0.19,0.1904,0.1908,0.1912,0.1915,0,0.2232,0.2233,0.2235,0.2226,0.2202,0.2236,0.2249,0.2203,0.2199,0.2096,0.2065,0.1758,0.1631,0.1696,0.1485,0.1484,0.1421,0.1514,0.1405,0.1458,0.1507,0.1348,0.0976,0.0975,0.0974,0.0973,0,0,0.2204,0.2183,0.2182,0.2127,0.2122,0.2079,0.2071,0.2002,0.1903,0.165,0.1469,0.1371,0.1482,0.1146,0.1121,0.1048,0.1249,0.0991,0.1711,0.1623,0.1671,0.1817,0.1624,0,0,0,0,0]},{"header":{"parameterUnit":"m.s-1","parameterCategory":2,"la1":30.2991,"la2":30.254,"lo1":-89.0895,"lo2":-89.0444,"dy":0.0017,"dx":0.0017,"nx":28,"ny":28,"refTime":"2025-06-20T03:00:00:Z","depth":"2","parameterNumber":3,"parameterNumberName":"V-component_of_CURRENTS"},"data":[0,0,0,0,0,0,0,0,0,0,0,0,0,0,0,0,0,0,0,0,0,0,0,0,0,0,0,0,0,0,0,0,0,0,0,0,0,0,0,0,0,0,0,0,0,0,0,0,0,0,0,0,0,0,0,0,0,0,-0.0382,-0.0383,0,-0.0428,-0.0428,-0.0428,-0.0452,-0.0452,-0.0452,-0.0452,-0.0533,-0.0535,-0.0537,0,0,0,0,0,0,0,0,0,0,0,0,0,-0.0332,-0.0332,-0.0382,-0.0383,-0.0384,-0.0428,-0.0428,-0.0429,-0.0452,-0.0452,-0.0452,-0.0452,-0.0532,-0.0535,-0.0537,0,0,0,0,0,0,0,0,0,0,0,0,0,-0.0361,-0.0332,-0.0382,-0.0402,-0.0404,-0.0427,-0.0428,-0.0429,-0.0451,-0.0452,-0.0452,-0.0452,-0.0532,-0.0534,-0.0537,-0.0551,0,0,-0.0547,-0.0548,0,0,0,0,0,0,0,0,-0.0359,-0.0363,-0.0398,-0.04,-0.0403,-0.0436,-0.044,-0.0472,-0.0451,-0.0432,-0.0452,-0.0452,-0.0505,-0.051,-0.0515,-0.0554,-0.0558,-0.0547,-0.0549,-0.055,-0.0551,0,0,0,0,0,0,0,-0.0357,-0.0361,-0.0398,-0.0399,-0.0402,-0.0414,-0.0418,-0.0446,-0.0465,-0.0433,-0.0436,-0.0443,-0.0506,-0.0512,-0.0517,-0.0559,-0.0547,-0.0549,-0.0551,-0.0552,-0.062,-0.062,0,0,0,0,0,0,-0.0354,-0.0359,-0.0397,-0.04,-0.0383,-0.0415,-0.0419,-0.0424,-0.0464,-0.0471,-0.0443,-0.0444,-0.0507,-0.0514,-0.052,-0.0523,-0.055,-0.0553,-0.0554,-0.062,-0.062,-0.062,0,0,0,0,0,0,-0.0353,-0.0357,-0.0395,-0.0382,-0.0388,-0.0415,-0.042,-0.0424,-0.0426,-0.0472,-0.0479,-0.044,-0.0507,-0.0516,-0.0532,-0.0527,-0.0554,-0.0557,-0.062,-0.062,-0.062,-0.0539,0,0,0,0,0,0,-0.0351,-0.0356,-0.0356,-0.0382,-0.0389,-0.0398,-0.042,-0.0425,-0.0432,-0.0433,-0.0472,-0.048,-0.0508,-0.0527,-0.0535,-0.0532,-0.0559,-0.062,-0.062,-0.062,-0.0541,-0.0536,-0.0531,0,0,0,0,0,-0.0349,-0.0346,-0.0355,-0.036,-0.0388,-0.0398,-0.0402,-0.0422,-0.0431,-0.0425,-0.0449,-0.0478,-0.0534,-0.0529,-0.0538,-0.0536,-0.062,-0.062,-0.062,-0.0544,-0.0537,-0.0531,0,0,0,0,0,0,-0.033,-0.0349,-0.0359,-0.0365,-0.0376,-0.0402,-0.0403,-0.0415,-0.0429,-0.0431,-0.0471,-0.048,-0.0494,-0.0528,-0.0522,-0.0558,-0.0585,-0.0587,-0.0524,-0.0518,-0.0513,-0.0493,-0.0562,0,0,0,0,0,-0.0325,-0.0323,-0.0346,-0.0349,-0.0353,-0.0376,-0.0382,-0.0393,-0.0411,-0.0417,-0.0435,-0.0468,-0.0503,-0.0518,-0.0546,-0.0562,-0.0582,-0.0571,-0.0565,-0.0561,-0.0552,-0.0585,-0.0581,-0.062,-0.062,-0.062,0,0,-0.0322,-0.033,-0.0332,-0.0344,-0.0356,-0.0349,-0.0379,-0.0383,-0.0377,-0.0425,-0.0413,-0.0445,-0.0502,-0.0516,-0.0527,-0.0542,-0.0556,-0.0561,-0.0556,-0.055,-0.0584,-0.058,-0.0576,-0.062,-0.062,-0.062,0,0,-0.0304,-0.0317,-0.0306,-0.0306,-0.0316,-0.0329,-0.0326,-0.0337,-0.0342,-0.034,-0.0378,-0.0399,-0.0438,-0.0473,-0.0502,-0.0489,-0.0525,-0.0507,-0.0467,-0.0497,-0.0494,-0.0491,-0.0485,-0.0483,-0.0508,-0.0507,-0.0507,0,-0.0299,-0.0286,-0.0304,-0.0287,-0.0283,-0.0314,-0.0295,-0.0308,-0.0317,-0.0318,-0.0326,-0.0378,-0.0418,-0.0456,-0.045,-0.0476,-0.0489,-0.0481,-0.0488,-0.0487,-0.0485,-0.048,-0.0478,-0.0504,-0.0504,-0.0504,-0.0505,0,-0.0268,-0.0254,-0.0247,-0.0233,-0.023,-0.022,-0.0236,-0.0229,-0.0237,-0.025,-0.0267,-0.0313,-0.0347,-0.0369,-0.0405,-0.0424,-0.0432,-0.0473,-0.0497,-0.0476,-0.0472,-0.0472,-0.0498,-0.0499,-0.05,-0.0501,0,0,-0.0264,-0.0231,-0.0227,-0.0204,-0.0197,-0.0191,-0.018,-0.0182,-0.0174,-0.0189,-0.018,-0.024,-0.0262,-0.0297,-0.0348,-0.0375,-0.0368,-0.0413,-0.0416,-0.0392,-0.0407,-0.0351,-0.0346,-0.0412,-0.0412,-0.0412,-0.0398,0,-0.0234,-0.0186,-0.0177,-0.0132,-0.0109,-0.0117,-0.0101,-0.0107,-0.0118,-0.0113,-0.0174,-0.0188,-0.0241,-0.0252,-0.0288,-0.035,-0.0368,-0.0366,-0.0443,-0.0445,-0.0387,-0.0344,-0.0374,-0.0359,-0.0397,-0.0397,-0.0397,0,-0.0204,-0.0173,-0.012,-0.0071,-0.0062,-0.0039,-0.0017,-0.0007,-0.0025,-0.0033,-0.0062,-0.0104,-0.0145,-0.0194,-0.0274,-0.027,-0.0326,-0.0373,-0.0375,-0.0352,-0.0389,-0.0395,-0.0358,-0.0397,-0.0397,-0.0397,-0.0397,0,-0.0185,-0.0131,-0.0085,-0.0068,-0.0024,-0.0,0.0018,0.0019,0.0031,0.0018,0.0028,-0.0033,-0.0052,-0.0136,-0.0216,-0.025,-0.0289,-0.0358,-0.0356,-0.0352,-0.0407,-0.0406,-0.041,-0.041,-0.041,-0.041,-0.041,0,-0.0152,-0.0115,-0.0071,-0.0043,0.001,0.0033,0.0078,0.0084,0.0099,0.0128,0.0069,0.0087,-0.004,-0.0078,-0.0174,-0.0231,-0.0256,-0.0325,-0.0343,-0.0375,-0.0372,-0.0442,-0.0446,-0.041,-0.041,-0.041,-0.041,0,-0.0135,-0.0105,-0.0052,0.0002,0.0023,0.0059,0.0118,0.0148,0.0159,0.0198,0.02,0.0178,0.0155,0.0048,-0.0061,-0.0156,-0.0234,-0.0254,-0.0252,-0.0269,-0.029,-0.0291,-0.0261,-0.0259,-0.0257,-0.0256,-0.0254,0,-0.0118,-0.0088,-0.0027,0.0005,0.0034,0.0089,0.0132,0.0168,0.0205,0.0266,0.0292,0.0296,0.0342,0.0232,0.005,-0.0074,-0.013,-0.0195,-0.0275,-0.0253,-0.0274,-0.0277,-0.028,-0.0314,-0.0314,-0.0313,-0.0313,0,-0.0091,-0.0075,-0.0033,0.0028,0.0079,0.0141,0.0207,0.0254,0.0313,0.0382,0.0485,0.0545,0.0449,0.0328,0.0159,0.0047,-0.0178,-0.0185,-0.0178,-0.0331,-0.0298,-0.032,-0.0323,-0.0308,-0.0308,-0.0309,-0.0309,-0.0309,-0.008,-0.0052,-0.0003,0.0055,0.0119,0.0204,0.0265,0.0368,0.0485,0.0618,0.0641,0.0715,0.0513,0.0312,0.0155,-0.0062,-0.0082,-0.021,-0.0215,-0.022,-0.0212,-0.0176,-0.016,-0.0159,-0.0159,-0.0159,-0.0159,0,-0.0066,-0.0033,0.0023,0.0104,0.0179,0.0206,0.0323,0.0425,0.0606,0.0711,0.0837,0.0671,0.0557,0.0348,0.0026,-0.0135,-0.0189,-0.0181,-0.0255,-0.0259,-0.0263,-0.026,-0.022,-0.022,-0.022,-0.022,0,0,-0.0054,-0.0007,0.0024,0.0141,0.0203,0.0307,0.038,0.0571,0.0673,0.0843,0.0854,0.0855,0.0572,0.0323,0.0093,-0.0063,-0.0114,-0.0085,-0.0031,-0.0097,-0.0098,-0.0285,-0.0284,0,0,0,0,0]}],[{"header":{"parameterUnit":"m.s-1","parameterCategory":2,"la1":30.2991,"la2":30.254,"lo1":-89.0895,"lo2":-89.0444,"dy":0.0017,"dx":0.0017,"nx":28,"ny":28,"refTime":"2025-06-20T03:00:00:Z","depth":"4","parameterNumber":2,"parameterNumberName":"U-component_of_CURRENTS"},"data":[0,0,0,0,0,0,0,0,0,0,0,0,0,0,0,0,0,0,0,0,0,0,0,0,0,0,0,0,0,0,0,0,0,0,0,0,0,0,0,0,0,0,0,0,0,0,0,0,0,0,0,0,0,0,0,0,0,0,0.0283,0.0284,0,0.0397,0.0399,0.04,0.0536,0.0538,0.054,0.0542,0.0665,0.0667,0.0668,0,0,0,0,0,0,0,0,0,0,0,0,0,0.0225,0.0225,0.0283,0.0284,0.0286,0.0397,0.0399,0.0401,0.0536,0.0538,0.054,0.0542,0.0665,0.0667,0.0668,0,0,0,0,0,0,0,0,0,0,0,0,0,0.0288,0.0225,0.0283,0.0365,0.0373,0.0397,0.0399,0.0401,0.0535,0.0538,0.0541,0.0543,0.0664,0.0666,0.0669,0.0627,0,0,0.0676,0.0677,0,0,0,0,0,0,0,0,0.0284,0.029,0.0351,0.0359,0.0368,0.0453,0.0424,0.0477,0.0535,0.0476,0.0542,0.0545,0.0591,0.06,0.0619,0.0633,0.0638,0.0676,0.0677,0.0678,0.0679,0,0,0,0,0,0,0,0.0279,0.0286,0.0331,0.0352,0.0363,0.041,0.0422,0.0435,0.0519,0.0482,0.0491,0.0499,0.0597,0.0616,0.0623,0.064,0.0676,0.0678,0.0679,0.068,0.0797,0.0799,0,0,0,0,0,0,0.0255,0.0281,0.0327,0.0334,0.0329,0.0408,0.0422,0.0425,0.0519,0.0535,0.0496,0.0505,0.0611,0.062,0.0627,0.0744,0.0678,0.0681,0.0682,0.0796,0.0798,0.0799,0,0,0,0,0,0,0.0253,0.0257,0.0323,0.0309,0.0321,0.0406,0.0409,0.0426,0.0512,0.053,0.0547,0.0572,0.0613,0.0624,0.0705,0.0744,0.0682,0.0684,0.0794,0.0796,0.0799,0.0874,0,0,0,0,0,0,0.0251,0.0256,0.0277,0.0307,0.032,0.0383,0.0406,0.0426,0.0507,0.0521,0.0598,0.0609,0.0616,0.0702,0.0708,0.0746,0.0686,0.0791,0.0795,0.0798,0.0869,0.0879,0.0887,0,0,0,0,0,0.0248,0.0261,0.0277,0.0284,0.0337,0.0384,0.0398,0.0468,0.0508,0.0556,0.0615,0.0611,0.0726,0.0706,0.0712,0.0752,0.079,0.0794,0.0797,0.0865,0.0877,0.0887,0,0,0,0,0,0,0.0257,0.0276,0.0295,0.0317,0.0367,0.0408,0.0458,0.0498,0.0581,0.0615,0.0636,0.0651,0.073,0.0731,0.0708,0.0794,0.0754,0.076,0.0804,0.0815,0.0823,0.0836,0.0688,0,0,0,0,0,0.0259,0.0277,0.0307,0.0336,0.0361,0.0419,0.0457,0.0508,0.0566,0.061,0.0667,0.0714,0.0735,0.0773,0.0797,0.0849,0.0832,0.0877,0.0885,0.0893,0.0907,0.0902,0.0911,0.0812,0.0812,0.0812,0,0,0.0271,0.0285,0.0298,0.034,0.0386,0.043,0.0454,0.0532,0.0589,0.0604,0.0728,0.0751,0.0755,0.0817,0.0852,0.0836,0.0915,0.0898,0.0904,0.0915,0.0907,0.0916,0.0924,0.0815,0.0814,0.0814,0,0,0.0293,0.032,0.0343,0.0385,0.0455,0.0484,0.0517,0.0599,0.0666,0.0765,0.0776,0.0828,0.0904,0.0901,0.0903,0.0971,0.0955,0.0991,0.1057,0.1051,0.1059,0.1066,0.1064,0.1069,0.1003,0.1003,0.1003,0,0.031,0.0341,0.0365,0.0405,0.0451,0.0512,0.0567,0.0623,0.0733,0.0787,0.0828,0.0926,0.0932,0.0959,0.0995,0.0989,0.0996,0.1015,0.1062,0.1068,0.1074,0.107,0.1075,0.1007,0.1007,0.1006,0.1006,0,0.0343,0.0389,0.0416,0.0475,0.0527,0.0593,0.0655,0.0743,0.0833,0.0887,0.0991,0.1013,0.1073,0.1072,0.1064,0.1103,0.1099,0.1065,0.1033,0.1088,0.108,0.1085,0.1013,0.1011,0.101,0.1009,0,0,0.033,0.0417,0.044,0.0486,0.0579,0.0625,0.072,0.0813,0.0884,0.1002,0.1094,0.1136,0.1177,0.1181,0.1171,0.1171,0.121,0.1161,0.1159,0.1156,0.1223,0.1039,0.1026,0.12,0.1201,0.1202,0.1204,0,0.0363,0.0438,0.0485,0.0588,0.0631,0.0717,0.0784,0.088,0.0981,0.1085,0.1127,0.121,0.1205,0.1253,0.1256,0.122,0.1226,0.1214,0.1174,0.1173,0.0998,0.1025,0.1206,0.1207,0.1208,0.1209,0.1209,0,0.0386,0.0433,0.0535,0.0634,0.0667,0.0759,0.0898,0.0973,0.1092,0.1173,0.1273,0.1308,0.1355,0.1336,0.133,0.1337,0.1305,0.1265,0.1264,0.1068,0.0995,0.1139,0.1216,0.1216,0.1215,0.1215,0.1214,0,0.0359,0.0473,0.0562,0.0604,0.0718,0.0824,0.0917,0.1038,0.1104,0.1265,0.1326,0.1392,0.1444,0.1424,0.1358,0.1377,0.1313,0.1312,0.1113,0.11,0.1233,0.1226,0.13,0.13,0.13,0.13,0.13,0,0.0358,0.043,0.0585,0.0638,0.0763,0.0856,0.1007,0.1103,0.1222,0.1251,0.1397,0.1381,0.1476,0.1438,0.1383,0.1242,0.1335,0.1127,0.1083,0.1266,0.1263,0.1236,0.1229,0.13,0.13,0.13,0.13,0,0.0313,0.0409,0.0506,0.0678,0.0763,0.0869,0.1073,0.113,0.1271,0.1317,0.137,0.1428,0.1352,0.1363,0.13,0.1249,0.1135,0.1053,0.1248,0.1215,0.0939,0.0936,0.0883,0.0877,0.0871,0.0867,0.0863,0,0.03,0.0349,0.0544,0.0627,0.0745,0.0922,0.101,0.1169,0.1181,0.1248,0.1202,0.1226,0.1217,0.1043,0.1031,0.0949,0.0908,0.093,0.0953,0.0931,0.0895,0.0901,0.0905,0.0854,0.0852,0.0851,0.0849,0,0.0259,0.0343,0.0419,0.0581,0.0729,0.0834,0.0964,0.0958,0.1039,0.1164,0.1057,0.1037,0.0934,0.0886,0.085,0.0758,0.0973,0.0872,0.0885,0.0907,0.0894,0.0865,0.0876,0.083,0.0833,0.0835,0.0836,0,0.0241,0.0266,0.0378,0.0518,0.067,0.0714,0.079,0.0796,0.0842,0.0899,0.081,0.0808,0.0865,0.0768,0.0665,0.0633,0.0629,0.068,0.0703,0.0725,0.0659,0.0619,0.0432,0,0,0,0,0,0.0222,0.0232,0.0313,0.0433,0.0561,0.0653,0.0721,0.075,0.0796,0.0702,0.078,0.0657,0.0589,0.0559,0.0483,0.0513,0.0594,0.0421,0.0658,0.0723,0.0745,0.0675,0,0,0,0,0,0,0.02,0.0257,0.0263,0.0347,0.0415,0.0517,0.0558,0.057,0.0511,0.0577,0.0525,0.0636,0.0543,0.063,0.0482,0.0473,0.061,0.0432,0.043,0.071,0.073,0.0748,0.0684,0,0,0,0,0]},{"header":{"parameterUnit":"m.s-1","parameterCategory":2,"la1":30.2991,"la2":30.254,"lo1":-89.0895,"lo2":-89.0444,"dy":0.0017,"dx":0.0017,"nx":28,"ny":28,"refTime":"2025-06-20T03:00:00:Z","depth":"4","parameterNumber":3,"parameterNumberName":"V-component_of_CURRENTS"},"data":[0,0,0,0,0,0,0,0,0,0,0,0,0,0,0,0,0,0,0,0,0,0,0,0,0,0,0,0,0,0,0,0,0,0,0,0,0,0,0,0,0,0,0,0,0,0,0,0,0,0,0,0,0,0,0,0,0,0,0.0258,0.0258,0,0.0196,0.0195,0.0194,0.0138,0.0138,0.0137,0.0137,-0.004,-0.0045,-0.0049,0,0,0,0,0,0,0,0,0,0,0,0,0,0.0262,0.0262,0.0258,0.0258,0.0257,0.0196,0.0195,0.0194,0.0138,0.0138,0.0137,0.0137,-0.0039,-0.0044,-0.0049,0,0,0,0,0,0,0,0,0,0,0,0,0,0.0234,0.0263,0.0259,0.0224,0.022,0.0197,0.0195,0.0194,0.0139,0.0138,0.0137,0.0137,-0.0037,-0.0044,-0.005,-0.0077,0,0,-0.007,-0.0073,0,0,0,0,0,0,0,0,0.0236,0.0234,0.023,0.0226,0.0222,0.0177,0.0132,0.0099,0.0139,0.0167,0.0137,0.0136,0.0024,0.0012,-0.0,-0.0085,-0.0093,-0.007,-0.0074,-0.0077,-0.0079,0,0,0,0,0,0,0,0.0238,0.0236,0.0231,0.0229,0.0225,0.0189,0.0185,0.0125,0.0096,0.0164,0.0161,0.0158,0.002,0.0006,-0.0005,-0.0095,-0.007,-0.0076,-0.008,-0.0082,-0.0274,-0.0275,0,0,0,0,0,0,0.0255,0.0238,0.0233,0.023,0.023,0.019,0.0185,0.019,0.0099,0.0086,0.0159,0.0156,0.0018,0.0003,-0.0012,-0.0108,-0.0077,-0.0083,-0.0087,-0.0273,-0.0274,-0.0275,0,0,0,0,0,0,0.0255,0.0256,0.0236,0.0234,0.0229,0.0191,0.0197,0.0189,0.0159,0.0096,0.008,0.0136,0.0017,-0.0002,-0.0086,-0.0113,-0.0086,-0.0092,-0.0271,-0.0273,-0.0275,-0.0263,0,0,0,0,0,0,0.0256,0.0256,0.0264,0.0235,0.023,0.0208,0.0198,0.0188,0.0161,0.0156,0.0071,0.0055,0.0015,-0.0076,-0.0092,-0.0121,-0.0097,-0.027,-0.0272,-0.0274,-0.0262,-0.0264,-0.0266,0,0,0,0,0,0.0256,0.0266,0.0265,0.0264,0.0243,0.0208,0.02,0.0169,0.0161,0.0141,0.0082,0.0057,-0.0101,-0.0082,-0.0101,-0.0133,-0.0269,-0.0271,-0.0274,-0.0261,-0.0264,-0.0266,0,0,0,0,0,0,0.0263,0.0261,0.0259,0.0266,0.0235,0.0199,0.0188,0.0164,0.0106,0.0096,0.0036,0.0015,-0.0066,-0.0101,-0.0078,-0.0194,-0.0187,-0.0194,-0.0171,-0.0174,-0.0176,-0.0159,-0.0102,0,0,0,0,0,0.0274,0.0284,0.0262,0.0264,0.0255,0.0221,0.0204,0.0176,0.0127,0.0101,0.0034,-0.0031,-0.0088,-0.0132,-0.0191,-0.0259,-0.0261,-0.029,-0.0292,-0.0294,-0.0293,-0.031,-0.0312,-0.0284,-0.0284,-0.0284,0,0,0.0275,0.0278,0.0281,0.0267,0.0248,0.0225,0.0207,0.0175,0.0144,0.0088,0.0012,-0.0046,-0.0108,-0.0182,-0.0221,-0.0219,-0.0302,-0.0297,-0.0298,-0.0297,-0.0313,-0.0315,-0.0317,-0.0286,-0.0286,-0.0285,0,0,0.0279,0.0288,0.0294,0.0273,0.0246,0.0222,0.0211,0.0155,0.0121,0.0041,0.0003,-0.0065,-0.0177,-0.0214,-0.0246,-0.0295,-0.031,-0.0325,-0.033,-0.0346,-0.0348,-0.0349,-0.0344,-0.0345,-0.0329,-0.0329,-0.0329,0,0.0284,0.029,0.0283,0.0276,0.026,0.0221,0.0202,0.0164,0.0078,0.005,0.0012,-0.0127,-0.0184,-0.0242,-0.027,-0.0298,-0.0307,-0.0312,-0.0346,-0.0348,-0.0349,-0.0344,-0.0345,-0.0328,-0.0328,-0.0328,-0.0328,0,0.0281,0.0285,0.0284,0.0271,0.0246,0.0222,0.0177,0.0133,0.0078,0.0034,-0.0056,-0.0138,-0.0216,-0.0249,-0.0286,-0.0331,-0.0332,-0.0341,-0.0331,-0.0351,-0.0344,-0.0346,-0.0328,-0.0328,-0.0328,-0.0328,0,0,0.0301,0.0288,0.029,0.0286,0.0241,0.0223,0.0177,0.0127,0.011,0.0,-0.0039,-0.0158,-0.0203,-0.0242,-0.0291,-0.0321,-0.0347,-0.0349,-0.035,-0.0329,-0.0375,-0.0345,-0.0343,-0.0368,-0.0369,-0.0369,-0.036,0,0.0302,0.0303,0.0286,0.0267,0.0258,0.0216,0.0186,0.0133,0.0074,0.0022,-0.0059,-0.0124,-0.0196,-0.0237,-0.0283,-0.033,-0.0355,-0.0349,-0.0372,-0.0372,-0.0331,-0.0345,-0.0371,-0.0361,-0.0361,-0.0362,-0.0362,0,0.0305,0.0308,0.0302,0.0283,0.0276,0.0252,0.0213,0.0177,0.0111,0.0062,-0.0019,-0.0081,-0.0159,-0.0208,-0.0299,-0.0297,-0.0343,-0.0374,-0.0375,-0.0352,-0.0346,-0.0343,-0.0365,-0.0365,-0.0364,-0.0364,-0.0364,0,0.0331,0.0318,0.0321,0.0312,0.0282,0.0266,0.0238,0.0183,0.018,0.009,0.0078,-0.0037,-0.0073,-0.0167,-0.0266,-0.0286,-0.0339,-0.0363,-0.037,-0.0367,-0.0399,-0.0398,-0.0412,-0.0412,-0.0412,-0.0412,-0.0412,0,0.0337,0.0341,0.0337,0.0339,0.034,0.0297,0.0293,0.0248,0.0221,0.0214,0.0104,0.0065,-0.0068,-0.0125,-0.0232,-0.0302,-0.0312,-0.0368,-0.0366,-0.0394,-0.0393,-0.0399,-0.0398,-0.0411,-0.0411,-0.0411,-0.0411,0,0.035,0.0355,0.0366,0.0355,0.0356,0.0349,0.0349,0.0354,0.0314,0.0306,0.0283,0.0172,0.006,-0.004,-0.0168,-0.0223,-0.0311,-0.0328,-0.0327,-0.0326,-0.0335,-0.0333,-0.0335,-0.0334,-0.0333,-0.0332,-0.0332,0,0.0351,0.0364,0.0392,0.0413,0.0405,0.0405,0.0418,0.0392,0.0393,0.0346,0.034,0.0255,0.0156,0.001,-0.0118,-0.0258,-0.0288,-0.0293,-0.0351,-0.033,-0.0329,-0.0329,-0.0329,-0.033,-0.033,-0.033,-0.0329,0,0.0351,0.0376,0.039,0.0446,0.0469,0.049,0.0488,0.0492,0.0455,0.0473,0.0367,0.0263,0.0163,-0.0005,-0.0077,-0.0201,-0.0275,-0.0285,-0.0288,-0.0343,-0.0325,-0.0324,-0.0325,-0.0326,-0.0327,-0.0327,-0.0327,0,0.036,0.0367,0.0414,0.0454,0.0511,0.0516,0.051,0.0485,0.0486,0.0432,0.0388,0.0243,0.0175,0.0025,-0.0077,-0.0155,-0.0196,-0.0215,-0.0223,-0.0228,-0.021,-0.0171,-0.0121,0,0,0,0,0,0.0354,0.0366,0.0414,0.044,0.0508,0.0534,0.0544,0.053,0.0506,0.0447,0.0418,0.0294,0.0128,0.003,-0.0048,-0.0069,-0.0202,-0.0158,-0.0227,-0.0309,-0.0313,-0.0309,0,0,0,0,0,0,0.0341,0.0385,0.0402,0.0447,0.0466,0.0512,0.0513,0.0489,0.0435,0.0405,0.0295,0.0304,0.0119,0.0172,-0.0045,-0.0068,-0.0114,-0.0222,-0.0223,-0.0307,-0.031,-0.0313,-0.0311,0,0,0,0,0]}]]